Time,TemperatureF,DewpointF,PressureIn,WindDirection,WindDirectionDegrees,WindSpeedMPH,WindSpeedGustMPH,Humidity,HourlyPrecipIn,Conditions,Clouds,dailyrainin,SoftwareType,DateUTC
2013-09-16 00:01:00,55.6,54.5,29.63,East,82,0.0,1.0,96,0.00,,,0.00,WeatherCatV1.02B3,2013-09-16 04:01:00,
2013-09-16 00:06:00,55.7,54.6,29.63,East,82,0.0,1.0,96,0.00,,,0.00,WeatherCatV1.02B3,2013-09-16 04:06:00,
2013-09-16 00:11:00,55.6,54.5,29.64,East,82,0.0,0.0,96,0.00,,,0.00,WeatherCatV1.02B3,2013-09-16 04:11:00,
2013-09-16 00:16:00,55.6,54.5,29.64,East,82,0.0,0.0,96,0.00,,,0.00,WeatherCatV1.02B3,2013-09-16 04:16:00,
2013-09-16 00:21:00,55.6,54.5,29.64,East,82,0.0,1.0,96,0.00,,,0.00,WeatherCatV1.02B3,2013-09-16 04:21:00,
2013-09-16 00:26:00,55.7,54.6,29.64,East,82,0.0,0.0,96,0.00,,,0.00,WeatherCatV1.02B3,2013-09-16 04:26:00,
2013-09-16 00:31:00,55.7,54.6,29.64,East,82,0.0,0.0,96,0.00,,,0.00,WeatherCatV1.02B3,2013-09-16 04:31:00,
2013-09-16 00:36:00,55.7,54.6,29.64,East,82,0.0,0.0,96,0.00,,,0.00,WeatherCatV1.02B3,2013-09-16 04:36:00,
2013-09-16 00:41:00,55.8,54.7,29.64,East,82,0.0,0.0,96,0.00,,,0.00,WeatherCatV1.02B3,2013-09-16 04:41:00,
2013-09-16 00:46:00,55.8,54.7,29.65,East,82,0.0,1.0,96,0.00,,,0.00,WeatherCatV1.02B3,2013-09-16 04:46:00,
2013-09-16 00:51:00,55.9,54.8,29.65,East,82,0.0,0.0,96,0.00,,,0.00,WeatherCatV1.02B3,2013-09-16 04:51:00,
2013-09-16 00:56:00,55.8,54.7,29.65,East,82,0.0,0.0,96,0.00,,,0.00,WeatherCatV1.02B3,2013-09-16 04:56:00,
2013-09-16 01:01:00,55.8,54.7,29.66,East,81,0.0,0.0,96,0.00,,,0.00,WeatherCatV1.02B3,2013-09-16 05:01:00,
2013-09-16 01:06:00,55.8,54.7,29.66,South,174,0.0,0.0,96,0.00,,,0.00,WeatherCatV1.02B3,2013-09-16 05:06:00,
2013-09-16 01:11:00,55.8,54.7,29.65,South,174,0.0,0.0,96,0.00,,,0.00,WeatherCatV1.02B3,2013-09-16 05:11:00,
2013-09-16 01:16:00,55.8,54.7,29.65,South,174,0.0,0.0,96,0.00,,,0.00,WeatherCatV1.02B3,2013-09-16 05:16:00,
2013-09-16 01:21:00,55.7,54.6,29.65,South,175,0.0,0.0,96,0.00,,,0.00,WeatherCatV1.02B3,2013-09-16 05:21:00,
2013-09-16 01:26:00,55.7,54.6,29.65,South,174,0.0,0.0,96,0.00,,,0.00,WeatherCatV1.02B3,2013-09-16 05:26:00,
2013-09-16 01:31:00,55.7,54.6,29.66,South,174,0.0,0.0,96,0.00,,,0.00,WeatherCatV1.02B3,2013-09-16 05:31:00,
2013-09-16 01:36:00,55.5,54.4,29.66,South,174,0.0,0.0,96,0.00,,,0.00,WeatherCatV1.02B3,2013-09-16 05:36:00,
2013-09-16 01:41:00,55.4,54.3,29.65,South,174,0.0,0.0,96,0.00,,,0.00,WeatherCatV1.02B3,2013-09-16 05:41:00,
2013-09-16 01:46:00,55.2,54.1,29.66,South,174,0.0,0.0,96,0.00,,,0.00,WeatherCatV1.02B3,2013-09-16 05:46:00,
2013-09-16 01:51:00,54.9,53.8,29.66,South,174,0.0,0.0,96,0.00,,,0.00,WeatherCatV1.02B3,2013-09-16 05:51:00,
2013-09-16 01:56:00,54.8,53.7,29.66,South,174,0.0,0.0,96,0.00,,,0.00,WeatherCatV1.02B3,2013-09-16 05:56:00,
2013-09-16 02:01:00,54.9,53.8,29.67,SW,228,0.0,0.0,96,0.00,,,0.00,WeatherCatV1.02B3,2013-09-16 06:01:00,
2013-09-16 02:06:00,55.1,54.0,29.67,SSW,211,0.0,1.0,96,0.00,,,0.00,WeatherCatV1.02B3,2013-09-16 06:06:00,
2013-09-16 02:11:00,55.1,54.3,29.67,SSW,211,0.0,0.0,97,0.00,,,0.00,WeatherCatV1.02B3,2013-09-16 06:11:00,
2013-09-16 02:16:00,55.1,54.0,29.67,SSW,211,0.0,0.0,96,0.00,,,0.00,WeatherCatV1.02B3,2013-09-16 06:16:00,
2013-09-16 02:21:00,55.0,53.9,29.67,SSW,211,0.0,0.0,96,0.00,,,0.00,WeatherCatV1.02B3,2013-09-16 06:21:00,
2013-09-16 02:26:00,54.9,53.8,29.67,SSW,211,0.0,0.0,96,0.00,,,0.00,WeatherCatV1.02B3,2013-09-16 06:26:00,
2013-09-16 02:31:00,54.9,53.8,29.67,SSW,211,0.0,0.0,96,0.00,,,0.00,WeatherCatV1.02B3,2013-09-16 06:31:00,
2013-09-16 02:36:00,54.9,53.8,29.67,SSW,211,0.0,0.0,96,0.00,,,0.00,WeatherCatV1.02B3,2013-09-16 06:36:00,
2013-09-16 02:41:00,54.9,53.8,29.67,SSW,211,0.0,0.0,96,0.00,,,0.00,WeatherCatV1.02B3,2013-09-16 06:41:00,
2013-09-16 02:46:00,54.9,53.8,29.68,SSW,211,0.0,0.0,96,0.00,,,0.00,WeatherCatV1.02B3,2013-09-16 06:46:00,
2013-09-16 02:51:00,54.7,53.6,29.67,SSW,211,0.0,0.0,96,0.00,,,0.00,WeatherCatV1.02B3,2013-09-16 06:51:00,
2013-09-16 02:56:00,54.3,53.2,29.67,SSW,211,0.0,0.0,96,0.00,,,0.00,WeatherCatV1.02B3,2013-09-16 06:56:00,
2013-09-16 03:01:00,53.9,52.8,29.67,SSW,211,0.0,0.0,96,0.00,,,0.00,WeatherCatV1.02B3,2013-09-16 07:01:00,
2013-09-16 03:06:00,53.6,52.5,29.67,SSW,211,0.0,0.0,96,0.00,,,0.00,WeatherCatV1.02B3,2013-09-16 07:06:00,
2013-09-16 03:11:00,53.5,52.4,29.67,SSW,211,0.0,0.0,96,0.00,,,0.00,WeatherCatV1.02B3,2013-09-16 07:11:00,
2013-09-16 03:16:00,53.3,52.2,29.67,SSW,211,0.0,0.0,96,0.00,,,0.00,WeatherCatV1.02B3,2013-09-16 07:16:00,
2013-09-16 03:22:00,53.0,51.9,29.67,SSW,211,0.0,0.0,96,0.00,,,0.00,WeatherCatV1.02B3,2013-09-16 07:22:00,
2013-09-16 03:27:00,52.5,51.4,29.68,SSW,211,0.0,0.0,96,0.00,,,0.00,WeatherCatV1.02B3,2013-09-16 07:27:00,
2013-09-16 03:31:00,52.0,50.9,29.68,SSW,211,0.0,0.0,96,0.00,,,0.00,WeatherCatV1.02B3,2013-09-16 07:31:00,
2013-09-16 03:36:00,51.6,50.5,29.68,SSW,211,0.0,0.0,96,0.00,,,0.00,WeatherCatV1.02B3,2013-09-16 07:36:00,
2013-09-16 03:41:00,51.4,50.3,29.68,SSW,211,0.0,0.0,96,0.00,,,0.00,WeatherCatV1.02B3,2013-09-16 07:41:00,
2013-09-16 03:46:00,51.3,50.5,29.68,SSW,211,0.0,0.0,97,0.00,,,0.00,WeatherCatV1.02B3,2013-09-16 07:46:00,
2013-09-16 03:51:00,51.6,50.8,29.68,SSW,211,0.0,0.0,97,0.00,,,0.00,WeatherCatV1.02B3,2013-09-16 07:51:00,
2013-09-16 03:57:00,52.0,51.2,29.68,SSW,211,0.0,0.0,97,0.00,,,0.00,WeatherCatV1.02B3,2013-09-16 07:57:00,
2013-09-16 04:02:00,52.5,52.0,29.68,SSW,211,0.0,0.0,98,0.00,,,0.00,WeatherCatV1.02B3,2013-09-16 08:02:00,
2013-09-16 04:07:00,53.0,52.4,29.68,WNW,302,0.0,1.0,98,0.00,,,0.00,WeatherCatV1.02B3,2013-09-16 08:07:00,
2013-09-16 04:12:00,53.4,52.8,29.69,SW,233,0.0,1.0,98,0.00,,,0.00,WeatherCatV1.02B3,2013-09-16 08:12:00,
2013-09-16 04:17:00,53.8,53.2,29.69,ENE,68,0.0,1.0,98,0.00,,,0.00,WeatherCatV1.02B3,2013-09-16 08:17:00,
2013-09-16 04:22:00,54.2,53.6,29.69,East,99,0.0,1.0,98,0.00,,,0.00,WeatherCatV1.02B3,2013-09-16 08:22:00,
2013-09-16 04:27:00,54.4,53.8,29.69,East,101,0.0,1.0,98,0.00,,,0.00,WeatherCatV1.02B3,2013-09-16 08:27:00,
2013-09-16 04:32:00,54.5,53.9,29.69,ESE,105,0.0,1.0,98,0.00,,,0.00,WeatherCatV1.02B3,2013-09-16 08:32:00,
2013-09-16 04:37:00,54.5,53.9,29.69,NNE,26,0.0,0.0,98,0.00,,,0.00,WeatherCatV1.02B3,2013-09-16 08:37:00,
2013-09-16 04:42:00,54.6,53.8,29.69,East,86,1.0,2.0,97,0.00,,,0.00,WeatherCatV1.02B3,2013-09-16 08:42:00,
2013-09-16 04:47:00,54.6,53.8,29.70,ENE,68,0.0,1.0,97,0.00,,,0.00,WeatherCatV1.02B3,2013-09-16 08:47:00,
2013-09-16 04:52:00,54.6,53.8,29.70,ENE,68,0.0,0.0,97,0.00,,,0.00,WeatherCatV1.02B3,2013-09-16 08:52:00,
2013-09-16 04:57:00,54.6,53.8,29.70,ENE,70,0.0,0.0,97,0.00,,,0.00,WeatherCatV1.02B3,2013-09-16 08:57:00,
2013-09-16 05:02:00,54.6,53.8,29.71,NNE,29,0.0,0.0,97,0.00,,,0.00,WeatherCatV1.02B3,2013-09-16 09:02:00,
2013-09-16 05:07:00,54.6,53.8,29.71,NE,51,0.0,1.0,97,0.00,,,0.00,WeatherCatV1.02B3,2013-09-16 09:07:00,
2013-09-16 05:12:00,54.5,53.7,29.71,North,358,1.0,2.0,97,0.00,,,0.00,WeatherCatV1.02B3,2013-09-16 09:12:00,
2013-09-16 05:17:00,54.5,53.7,29.71,ENE,76,1.0,2.0,97,0.00,,,0.00,WeatherCatV1.02B3,2013-09-16 09:17:00,
2013-09-16 05:22:00,54.3,53.5,29.71,ENE,74,0.0,2.0,97,0.00,,,0.00,WeatherCatV1.02B3,2013-09-16 09:22:00,
2013-09-16 05:27:00,54.2,53.4,29.71,East,87,1.0,1.0,97,0.00,,,0.00,WeatherCatV1.02B3,2013-09-16 09:27:00,
2013-09-16 05:32:00,54.2,53.4,29.71,SE,124,0.0,1.0,97,0.00,,,0.00,WeatherCatV1.02B3,2013-09-16 09:32:00,
2013-09-16 05:37:00,54.1,53.3,29.71,SE,129,0.0,0.0,97,0.00,,,0.00,WeatherCatV1.02B3,2013-09-16 09:37:00,
2013-09-16 05:42:00,54.1,53.3,29.72,ESE,120,0.0,1.0,97,0.00,,,0.00,WeatherCatV1.02B3,2013-09-16 09:42:00,
2013-09-16 05:47:00,54.1,53.0,29.72,ESE,120,0.0,1.0,96,0.00,,,0.00,WeatherCatV1.02B3,2013-09-16 09:47:00,
2013-09-16 05:52:00,54.0,52.9,29.72,ESE,108,0.0,1.0,96,0.00,,,0.00,WeatherCatV1.02B3,2013-09-16 09:52:00,
2013-09-16 05:57:00,53.8,52.7,29.72,ESE,108,0.0,0.0,96,0.00,,,0.00,WeatherCatV1.02B3,2013-09-16 09:57:00,
2013-09-16 06:02:00,53.5,52.4,29.72,ESE,107,0.0,0.0,96,0.00,,,0.00,WeatherCatV1.02B3,2013-09-16 10:02:00,
2013-09-16 06:07:00,53.2,52.1,29.72,ESE,107,0.0,0.0,96,0.00,,,0.00,WeatherCatV1.02B3,2013-09-16 10:07:00,
2013-09-16 06:12:00,53.0,51.9,29.72,ESE,108,0.0,0.0,96,0.00,,,0.00,WeatherCatV1.02B3,2013-09-16 10:12:00,
2013-09-16 06:17:00,52.6,51.5,29.72,ESE,107,0.0,0.0,96,0.00,,,0.00,WeatherCatV1.02B3,2013-09-16 10:17:00,
2013-09-16 06:22:00,52.4,51.3,29.72,ESE,108,0.0,0.0,96,0.00,,,0.00,WeatherCatV1.02B3,2013-09-16 10:22:00,
2013-09-16 06:27:00,52.3,51.2,29.73,ESE,108,0.0,0.0,96,0.00,,,0.00,WeatherCatV1.02B3,2013-09-16 10:27:00,
2013-09-16 06:32:00,52.4,51.6,29.73,ESE,107,0.0,0.0,97,0.00,,,0.00,WeatherCatV1.02B3,2013-09-16 10:32:00,
2013-09-16 06:37:00,52.4,51.6,29.73,ESE,107,0.0,0.0,97,0.00,,,0.00,WeatherCatV1.02B3,2013-09-16 10:37:00,
2013-09-16 06:42:00,52.4,51.6,29.73,ESE,108,0.0,0.0,97,0.00,,,0.00,WeatherCatV1.02B3,2013-09-16 10:42:00,
2013-09-16 06:47:00,52.5,51.7,29.73,ESE,108,0.0,0.0,97,0.00,,,0.00,WeatherCatV1.02B3,2013-09-16 10:47:00,
2013-09-16 06:52:00,52.5,51.7,29.74,ESE,108,0.0,0.0,97,0.00,,,0.00,WeatherCatV1.02B3,2013-09-16 10:52:00,
2013-09-16 06:57:00,52.7,51.9,29.73,ESE,108,0.0,0.0,97,0.00,,,0.00,WeatherCatV1.02B3,2013-09-16 10:57:00,
2013-09-16 07:02:00,52.8,52.0,29.74,ESE,108,0.0,0.0,97,0.00,,,0.00,WeatherCatV1.02B3,2013-09-16 11:02:00,
2013-09-16 07:07:00,52.9,52.1,29.74,ESE,109,0.0,0.0,97,0.00,,,0.00,WeatherCatV1.02B3,2013-09-16 11:07:00,
2013-09-16 07:12:00,53.0,52.2,29.74,ESE,107,0.0,0.0,97,0.00,,,0.00,WeatherCatV1.02B3,2013-09-16 11:12:00,
2013-09-16 07:17:00,53.0,52.2,29.74,ESE,107,0.0,0.0,97,0.00,,,0.00,WeatherCatV1.02B3,2013-09-16 11:17:00,
2013-09-16 07:22:00,53.0,52.2,29.75,ENE,71,1.0,2.0,97,0.00,,,0.00,WeatherCatV1.02B3,2013-09-16 11:22:00,
2013-09-16 07:27:00,53.2,52.4,29.75,ENE,68,0.0,1.0,97,0.00,,,0.00,WeatherCatV1.02B3,2013-09-16 11:27:00,
2013-09-16 07:32:00,53.3,52.5,29.75,ENE,68,0.0,0.0,97,0.00,,,0.00,WeatherCatV1.02B3,2013-09-16 11:32:00,
2013-09-16 07:37:00,53.4,52.6,29.75,SE,129,0.0,0.0,97,0.00,,,0.00,WeatherCatV1.02B3,2013-09-16 11:37:00,
2013-09-16 07:42:00,53.4,52.6,29.75,SE,127,0.0,1.0,97,0.00,,,0.00,WeatherCatV1.02B3,2013-09-16 11:42:00,
2013-09-16 07:47:00,53.6,52.8,29.76,NNE,24,0.0,0.0,97,0.00,,,0.00,WeatherCatV1.02B3,2013-09-16 11:47:00,
2013-09-16 07:52:00,53.7,52.9,29.76,WSW,252,0.0,1.0,97,0.00,,,0.00,WeatherCatV1.02B3,2013-09-16 11:52:00,
2013-09-16 07:57:00,53.7,52.9,29.76,East,91,1.0,1.0,97,0.00,,,0.00,WeatherCatV1.02B3,2013-09-16 11:57:00,
2013-09-16 08:02:00,53.8,53.0,29.76,ENE,75,2.0,2.0,97,0.00,,,0.00,WeatherCatV1.02B3,2013-09-16 12:02:00,
2013-09-16 08:07:00,53.9,53.1,29.76,NNW,328,0.0,4.0,97,0.00,,,0.00,WeatherCatV1.02B3,2013-09-16 12:07:00,
2013-09-16 08:12:00,54.0,53.2,29.77,ENE,66,1.0,3.0,97,0.00,,,0.00,WeatherCatV1.02B3,2013-09-16 12:12:00,
2013-09-16 08:17:00,54.1,53.3,29.77,ENE,60,0.0,1.0,97,0.00,,,0.00,WeatherCatV1.02B3,2013-09-16 12:17:00,
2013-09-16 08:22:00,54.2,53.4,29.77,ENE,61,0.0,4.0,97,0.00,,,0.00,WeatherCatV1.02B3,2013-09-16 12:22:00,
2013-09-16 08:27:00,54.3,53.2,29.77,ESE,105,0.0,1.0,96,0.00,,,0.00,WeatherCatV1.02B3,2013-09-16 12:27:00,
2013-09-16 08:32:00,54.5,53.4,29.77,SSE,151,0.0,1.0,96,0.00,,,0.00,WeatherCatV1.02B3,2013-09-16 12:32:00,
2013-09-16 08:37:00,54.6,53.5,29.77,ENE,61,0.0,3.0,96,0.00,,,0.00,WeatherCatV1.02B3,2013-09-16 12:37:00,
2013-09-16 08:42:00,54.7,53.6,29.78,NNE,28,3.0,3.0,96,0.00,,,0.00,WeatherCatV1.02B3,2013-09-16 12:42:00,
2013-09-16 08:47:00,54.8,53.7,29.78,NE,44,1.0,1.0,96,0.00,,,0.00,WeatherCatV1.02B3,2013-09-16 12:47:00,
2013-09-16 08:52:00,54.9,53.8,29.78,ESE,110,1.0,1.0,96,0.00,,,0.00,WeatherCatV1.02B3,2013-09-16 12:52:00,
2013-09-16 08:57:00,55.1,54.0,29.78,NE,49,0.0,1.0,96,0.00,,,0.00,WeatherCatV1.02B3,2013-09-16 12:57:00,
2013-09-16 09:02:00,55.2,53.8,29.79,NE,42,0.0,2.0,95,0.00,,,0.00,WeatherCatV1.02B3,2013-09-16 13:02:00,
2013-09-16 09:07:00,55.2,53.8,29.79,West,276,1.0,1.0,95,0.00,,,0.00,WeatherCatV1.02B3,2013-09-16 13:07:00,
2013-09-16 09:12:00,55.3,53.9,29.79,ENE,70,0.0,2.0,95,0.00,,,0.00,WeatherCatV1.02B3,2013-09-16 13:12:00,
2013-09-16 09:17:00,55.3,53.9,29.79,ENE,64,0.0,1.0,95,0.00,,,0.00,WeatherCatV1.02B3,2013-09-16 13:17:00,
2013-09-16 09:22:00,55.4,53.7,29.79,ESE,110,0.0,2.0,94,0.00,,,0.00,WeatherCatV1.02B3,2013-09-16 13:22:00,
2013-09-16 09:27:00,55.4,53.7,29.79,ESE,117,1.0,1.0,94,0.00,,,0.00,WeatherCatV1.02B3,2013-09-16 13:27:00,
2013-09-16 09:32:00,55.7,54.0,29.80,ENE,61,1.0,3.0,94,0.00,,,0.00,WeatherCatV1.02B3,2013-09-16 13:32:00,
2013-09-16 09:37:00,55.9,54.2,29.80,NNW,347,1.0,1.0,94,0.00,,,0.00,WeatherCatV1.02B3,2013-09-16 13:37:00,
2013-09-16 09:42:00,55.9,53.9,29.80,East,100,1.0,1.0,93,0.00,,,0.00,WeatherCatV1.02B3,2013-09-16 13:42:00,
2013-09-16 09:47:00,56.2,53.9,29.80,ESE,110,0.0,4.0,92,0.00,,,0.00,WeatherCatV1.02B3,2013-09-16 13:47:00,
2013-09-16 09:52:00,56.4,54.1,29.80,East,86,1.0,3.0,92,0.00,,,0.00,WeatherCatV1.02B3,2013-09-16 13:52:00,
2013-09-16 09:57:00,56.5,53.9,29.81,West,274,0.0,4.0,91,0.00,,,0.00,WeatherCatV1.02B3,2013-09-16 13:57:00,
2013-09-16 10:02:00,56.9,54.3,29.81,NE,46,0.0,2.0,91,0.00,,,0.00,WeatherCatV1.02B3,2013-09-16 14:02:00,
2013-09-16 10:07:00,57.0,54.1,29.81,NE,53,2.0,3.0,90,0.00,,,0.00,WeatherCatV1.02B3,2013-09-16 14:07:00,
2013-09-16 10:12:00,57.1,53.9,29.81,ESE,103,1.0,3.0,89,0.00,,,0.00,WeatherCatV1.02B3,2013-09-16 14:12:00,
2013-09-16 10:17:00,57.5,54.0,29.81,North,356,4.0,5.0,88,0.00,,,0.00,WeatherCatV1.02B3,2013-09-16 14:17:00,
2013-09-16 10:22:00,57.6,53.8,29.81,NW,312,0.0,4.0,87,0.00,,,0.00,WeatherCatV1.02B3,2013-09-16 14:22:00,
2013-09-16 10:27:00,57.6,53.8,29.82,NNW,331,1.0,4.0,87,0.00,,,0.00,WeatherCatV1.02B3,2013-09-16 14:27:00,
2013-09-16 10:32:00,57.5,53.7,29.82,WNW,300,1.0,4.0,87,0.00,,,0.00,WeatherCatV1.02B3,2013-09-16 14:32:00,
2013-09-16 10:37:00,57.8,54.0,29.82,NE,37,1.0,3.0,87,0.00,,,0.00,WeatherCatV1.02B3,2013-09-16 14:37:00,
2013-09-16 10:42:00,58.2,54.3,29.82,ENE,68,1.0,2.0,87,0.00,,,0.00,WeatherCatV1.02B3,2013-09-16 14:42:00,
2013-09-16 10:47:00,58.8,55.3,29.82,East,96,2.0,2.0,88,0.00,,,0.00,WeatherCatV1.02B3,2013-09-16 14:47:00,
2013-09-16 10:52:00,59.5,54.7,29.82,NE,34,0.0,3.0,84,0.00,,,0.00,WeatherCatV1.02B3,2013-09-16 14:52:00,
2013-09-16 10:57:00,60.2,55.0,29.82,East,98,0.0,3.0,83,0.00,,,0.00,WeatherCatV1.02B3,2013-09-16 14:57:00,
2013-09-16 11:02:00,60.5,54.6,29.82,East,87,0.0,1.0,81,0.00,,,0.00,WeatherCatV1.02B3,2013-09-16 15:02:00,
2013-09-16 11:07:00,60.6,55.1,29.82,NE,43,4.0,4.0,82,0.00,,,0.00,WeatherCatV1.02B3,2013-09-16 15:07:00,
2013-09-16 11:12:00,60.7,53.4,29.83,NNE,29,0.0,3.0,77,0.00,,,0.00,WeatherCatV1.02B3,2013-09-16 15:12:00,
2013-09-16 11:17:00,60.4,53.5,29.83,ENE,64,0.0,2.0,78,0.00,,,0.00,WeatherCatV1.02B3,2013-09-16 15:17:00,
2013-09-16 11:22:00,60.1,52.9,29.83,NW,305,2.0,3.0,77,0.00,,,0.00,WeatherCatV1.02B3,2013-09-16 15:22:00,
2013-09-16 11:27:00,60.0,53.5,29.83,NNE,29,0.0,2.0,79,0.00,,,0.00,WeatherCatV1.02B3,2013-09-16 15:27:00,
2013-09-16 11:32:00,60.3,52.7,29.83,East,98,0.0,2.0,76,0.00,,,0.00,WeatherCatV1.02B3,2013-09-16 15:32:00,
2013-09-16 11:37:00,60.4,53.5,29.83,North,356,0.0,4.0,78,0.00,,,0.00,WeatherCatV1.02B3,2013-09-16 15:37:00,
2013-09-16 11:42:00,60.5,54.0,29.83,West,270,1.0,4.0,79,0.00,,,0.00,WeatherCatV1.02B3,2013-09-16 15:42:00,
2013-09-16 11:47:00,60.6,52.6,29.83,ENE,77,2.0,2.0,75,0.00,,,0.00,WeatherCatV1.02B3,2013-09-16 15:47:00,
2013-09-16 11:52:00,60.4,52.8,29.82,NNE,12,1.0,1.0,76,0.00,,,0.00,WeatherCatV1.02B3,2013-09-16 15:52:00,
2013-09-16 11:57:00,60.2,53.0,29.83,NNE,16,0.0,0.0,77,0.00,,,0.00,WeatherCatV1.02B3,2013-09-16 15:57:00,
2013-09-16 12:02:00,60.9,52.6,29.83,NNW,328,1.0,2.0,74,0.00,,,0.00,WeatherCatV1.02B3,2013-09-16 16:02:00,
2013-09-16 12:07:00,62.3,52.8,29.83,East,80,1.0,4.0,71,0.00,,,0.00,WeatherCatV1.02B3,2013-09-16 16:07:00,
2013-09-16 12:12:00,63.0,53.8,29.83,North,349,2.0,4.0,72,0.00,,,0.00,WeatherCatV1.02B3,2013-09-16 16:12:00,
2013-09-16 12:17:00,63.5,53.5,29.83,NNE,13,3.0,3.0,70,0.00,,,0.00,WeatherCatV1.02B3,2013-09-16 16:17:00,
2013-09-16 12:22:00,62.7,53.2,29.83,WSW,238,1.0,6.0,71,0.00,,,0.00,WeatherCatV1.02B3,2013-09-16 16:22:00,
2013-09-16 12:27:00,62.5,53.7,29.83,NW,322,1.0,2.0,73,0.00,,,0.00,WeatherCatV1.02B3,2013-09-16 16:27:00,
2013-09-16 12:32:00,63.1,53.9,29.83,WSW,255,5.0,5.0,72,0.00,,,0.00,WeatherCatV1.02B3,2013-09-16 16:32:00,
2013-09-16 12:37:00,62.2,53.1,29.83,SSE,155,0.0,2.0,72,0.00,,,0.00,WeatherCatV1.02B3,2013-09-16 16:37:00,
2013-09-16 12:42:00,62.1,53.3,29.83,North,1,0.0,3.0,73,0.00,,,0.00,WeatherCatV1.02B3,2013-09-16 16:42:00,
2013-09-16 12:47:00,62.4,53.2,29.83,NW,319,1.0,4.0,72,0.00,,,0.00,WeatherCatV1.02B3,2013-09-16 16:47:00,
2013-09-16 12:52:00,62.0,52.1,29.83,ESE,110,2.0,4.0,70,0.00,,,0.00,WeatherCatV1.02B3,2013-09-16 16:52:00,
2013-09-16 12:57:00,62.0,52.9,29.83,West,274,2.0,5.0,72,0.00,,,0.00,WeatherCatV1.02B3,2013-09-16 16:57:00,
2013-09-16 13:02:00,62.2,53.1,29.83,SE,133,0.0,5.0,72,0.00,,,0.00,WeatherCatV1.02B3,2013-09-16 17:02:00,
2013-09-16 13:07:00,62.5,54.5,29.83,East,81,3.0,5.0,75,0.00,,,0.00,WeatherCatV1.02B3,2013-09-16 17:07:00,
2013-09-16 13:12:00,63.2,52.9,29.83,ENE,70,1.0,5.0,69,0.00,,,0.00,WeatherCatV1.02B3,2013-09-16 17:12:00,
2013-09-16 13:17:00,63.6,53.6,29.83,ENE,61,3.0,6.0,70,0.00,,,0.00,WeatherCatV1.02B3,2013-09-16 17:17:00,
2013-09-16 13:22:00,63.8,54.6,29.83,East,89,2.0,2.0,72,0.00,,,0.00,WeatherCatV1.02B3,2013-09-16 17:22:00,
2013-09-16 13:27:00,63.9,53.1,29.83,ENE,74,1.0,2.0,68,0.00,,,0.00,WeatherCatV1.02B3,2013-09-16 17:27:00,
2013-09-16 13:32:00,64.1,53.7,29.83,SE,127,1.0,4.0,69,0.00,,,0.00,WeatherCatV1.02B3,2013-09-16 17:32:00,
2013-09-16 13:37:00,63.8,52.6,29.83,WNW,299,0.0,2.0,67,0.00,,,0.00,WeatherCatV1.02B3,2013-09-16 17:37:00,
2013-09-16 13:42:00,63.5,52.7,29.83,North,4,2.0,4.0,68,0.00,,,0.00,WeatherCatV1.02B3,2013-09-16 17:42:00,
2013-09-16 13:47:00,63.4,52.2,29.83,SW,217,0.0,3.0,67,0.00,,,0.00,WeatherCatV1.02B3,2013-09-16 17:47:00,
2013-09-16 13:52:00,64.2,53.0,29.83,NNE,23,3.0,5.0,67,0.00,,,0.00,WeatherCatV1.02B3,2013-09-16 17:52:00,
2013-09-16 13:57:00,64.1,54.1,29.83,NE,36,1.0,3.0,70,0.00,,,0.00,WeatherCatV1.02B3,2013-09-16 17:57:00,
2013-09-16 14:02:00,64.5,52.9,29.83,WSW,248,1.0,5.0,66,0.00,,,0.00,WeatherCatV1.02B3,2013-09-16 18:02:00,
2013-09-16 14:07:00,64.6,53.4,29.83,SW,231,4.0,5.0,67,0.00,,,0.00,WeatherCatV1.02B3,2013-09-16 18:07:00,
2013-09-16 14:12:00,64.5,52.5,29.83,SSE,159,0.0,6.0,65,0.00,,,0.00,WeatherCatV1.02B3,2013-09-16 18:12:00,
2013-09-16 14:17:00,64.1,53.3,29.83,WNW,295,3.0,3.0,68,0.00,,,0.00,WeatherCatV1.02B3,2013-09-16 18:17:00,
2013-09-16 14:22:00,64.2,52.6,29.83,WNW,284,1.0,4.0,66,0.00,,,0.00,WeatherCatV1.02B3,2013-09-16 18:22:00,
2013-09-16 14:27:00,64.0,53.2,29.83,SSW,200,1.0,4.0,68,0.00,,,0.00,WeatherCatV1.02B3,2013-09-16 18:27:00,
2013-09-16 14:32:00,64.4,53.6,29.83,SSW,193,1.0,4.0,68,0.00,,,0.00,WeatherCatV1.02B3,2013-09-16 18:32:00,
2013-09-16 14:37:00,64.8,54.0,29.82,NNW,346,2.0,4.0,68,0.00,,,0.00,WeatherCatV1.02B3,2013-09-16 18:37:00,
2013-09-16 14:42:00,64.7,53.5,29.83,ESE,108,1.0,3.0,67,0.00,,,0.00,WeatherCatV1.02B3,2013-09-16 18:42:00,
2013-09-16 14:47:00,65.0,52.9,29.82,SW,224,0.0,7.0,65,0.00,,,0.00,WeatherCatV1.02B3,2013-09-16 18:47:00,
2013-09-16 14:52:00,64.9,53.7,29.82,NW,326,2.0,4.0,67,0.00,,,0.00,WeatherCatV1.02B3,2013-09-16 18:52:00,
2013-09-16 14:57:00,64.2,52.2,29.82,NE,43,3.0,6.0,65,0.00,,,0.00,WeatherCatV1.02B3,2013-09-16 18:57:00,
2013-09-16 15:02:00,63.9,52.7,29.82,NNW,328,1.0,4.0,67,0.00,,,0.00,WeatherCatV1.02B3,2013-09-16 19:02:00,
2013-09-16 15:07:00,64.3,53.9,29.82,West,264,0.0,5.0,69,0.00,,,0.00,WeatherCatV1.02B3,2013-09-16 19:07:00,
2013-09-16 15:12:00,64.6,54.2,29.82,WNW,296,1.0,3.0,69,0.00,,,0.00,WeatherCatV1.02B3,2013-09-16 19:12:00,
2013-09-16 15:17:00,64.5,52.5,29.82,NNE,31,1.0,3.0,65,0.00,,,0.00,WeatherCatV1.02B3,2013-09-16 19:17:00,
2013-09-16 15:22:00,64.3,52.3,29.82,ENE,71,4.0,4.0,65,0.00,,,0.00,WeatherCatV1.02B3,2013-09-16 19:22:00,
2013-09-16 15:27:00,64.0,52.0,29.82,NE,38,4.0,7.0,65,0.00,,,0.00,WeatherCatV1.02B3,2013-09-16 19:27:00,
2013-09-16 15:32:00,64.2,53.0,29.82,WSW,250,3.0,5.0,67,0.00,,,0.00,WeatherCatV1.02B3,2013-09-16 19:32:00,
2013-09-16 15:37:00,64.2,52.6,29.82,NE,47,3.0,3.0,66,0.00,,,0.00,WeatherCatV1.02B3,2013-09-16 19:37:00,
2013-09-16 15:42:00,64.4,52.8,29.82,WNW,291,3.0,4.0,66,0.00,,,0.00,WeatherCatV1.02B3,2013-09-16 19:42:00,
2013-09-16 15:47:00,64.6,52.6,29.81,NNE,20,1.0,3.0,65,0.00,,,0.00,WeatherCatV1.02B3,2013-09-16 19:47:00,
2013-09-16 15:52:00,64.4,52.4,29.81,South,179,1.0,2.0,65,0.00,,,0.00,WeatherCatV1.02B3,2013-09-16 19:52:00,
2013-09-16 15:57:00,64.8,52.8,29.81,WSW,256,4.0,4.0,65,0.00,,,0.00,WeatherCatV1.02B3,2013-09-16 19:57:00,
2013-09-16 16:02:00,64.7,53.5,29.81,NE,46,3.0,5.0,67,0.00,,,0.00,WeatherCatV1.02B3,2013-09-16 20:02:00,
2013-09-16 16:07:00,64.5,52.9,29.81,ENE,60,1.0,3.0,66,0.00,,,0.00,WeatherCatV1.02B3,2013-09-16 20:07:00,
2013-09-16 16:12:00,64.1,52.9,29.81,ENE,71,5.0,5.0,67,0.00,,,0.00,WeatherCatV1.02B3,2013-09-16 20:12:00,
2013-09-16 16:17:00,64.3,53.5,29.81,NNE,26,2.0,5.0,68,0.00,,,0.00,WeatherCatV1.02B3,2013-09-16 20:17:00,
2013-09-16 16:22:00,64.0,52.0,29.81,ESE,122,1.0,5.0,65,0.00,,,0.00,WeatherCatV1.02B3,2013-09-16 20:22:00,
2013-09-16 16:27:00,63.7,52.1,29.80,ESE,103,3.0,8.0,66,0.00,,,0.00,WeatherCatV1.02B3,2013-09-16 20:27:00,
2013-09-16 16:32:00,62.9,51.8,29.81,SE,124,1.0,9.0,67,0.00,,,0.00,WeatherCatV1.02B3,2013-09-16 20:32:00,
2013-09-16 16:37:00,62.8,52.1,29.81,ENE,70,2.0,9.0,68,0.00,,,0.00,WeatherCatV1.02B3,2013-09-16 20:37:00,
2013-09-16 16:42:00,63.2,52.9,29.80,SW,222,1.0,6.0,69,0.00,,,0.00,WeatherCatV1.02B3,2013-09-16 20:42:00,
2013-09-16 16:47:00,63.4,52.2,29.80,SSW,210,0.0,6.0,67,0.00,,,0.00,WeatherCatV1.02B3,2013-09-16 20:47:00,
2013-09-16 16:52:00,63.8,53.4,29.80,NNE,28,1.0,5.0,69,0.00,,,0.00,WeatherCatV1.02B3,2013-09-16 20:52:00,
2013-09-16 16:57:00,63.6,52.8,29.80,ESE,104,1.0,3.0,68,0.00,,,0.00,WeatherCatV1.02B3,2013-09-16 20:57:00,
2013-09-16 17:02:00,63.5,52.3,29.80,SW,215,3.0,4.0,67,0.00,,,0.00,WeatherCatV1.02B3,2013-09-16 21:02:00,
2013-09-16 17:07:00,63.7,53.3,29.80,SSE,153,1.0,3.0,69,0.00,,,0.00,WeatherCatV1.02B3,2013-09-16 21:07:00,
2013-09-16 17:12:00,64.1,53.3,29.80,East,90,2.0,3.0,68,0.00,,,0.00,WeatherCatV1.02B3,2013-09-16 21:12:00,
2013-09-16 17:17:00,63.3,52.2,29.80,NW,324,1.0,6.0,67,0.00,,,0.00,WeatherCatV1.02B3,2013-09-16 21:17:00,
2013-09-16 17:22:00,62.8,52.1,29.80,NW,321,0.0,2.0,68,0.00,,,0.00,WeatherCatV1.02B3,2013-09-16 21:22:00,
2013-09-16 17:27:00,62.6,52.3,29.80,North,357,3.0,8.0,69,0.00,,,0.00,WeatherCatV1.02B3,2013-09-16 21:27:00,
2013-09-16 17:32:00,62.1,51.8,29.80,West,276,0.0,8.0,69,0.00,,,0.00,WeatherCatV1.02B3,2013-09-16 21:32:00,
2013-09-16 17:37:00,62.1,52.2,29.80,NE,53,1.0,5.0,70,0.00,,,0.00,WeatherCatV1.02B3,2013-09-16 21:37:00,
2013-09-16 17:42:00,62.0,52.5,29.80,NE,56,6.0,6.0,71,0.00,,,0.00,WeatherCatV1.02B3,2013-09-16 21:42:00,
2013-09-16 17:47:00,61.7,52.2,29.80,ESE,103,3.0,8.0,71,0.00,,,0.00,WeatherCatV1.02B3,2013-09-16 21:47:00,
2013-09-16 17:52:00,61.4,52.7,29.80,NE,51,2.0,3.0,73,0.00,,,0.00,WeatherCatV1.02B3,2013-09-16 21:52:00,
2013-09-16 17:57:00,60.9,52.2,29.80,NNW,347,5.0,5.0,73,0.00,,,0.00,WeatherCatV1.02B3,2013-09-16 21:57:00,
2013-09-16 18:02:00,60.6,52.3,29.80,NE,49,0.0,3.0,74,0.00,,,0.00,WeatherCatV1.02B3,2013-09-16 22:02:00,
2013-09-16 18:07:00,60.6,52.3,29.80,NNW,340,2.0,5.0,74,0.00,,,0.00,WeatherCatV1.02B3,2013-09-16 22:07:00,
2013-09-16 18:12:00,60.4,52.1,29.80,East,95,1.0,6.0,74,0.00,,,0.00,WeatherCatV1.02B3,2013-09-16 22:12:00,
2013-09-16 18:17:00,60.2,51.9,29.80,NNW,342,2.0,6.0,74,0.00,,,0.00,WeatherCatV1.02B3,2013-09-16 22:17:00,
2013-09-16 18:22:00,60.0,52.0,29.80,NNE,30,1.0,3.0,75,0.00,,,0.00,WeatherCatV1.02B3,2013-09-16 22:22:00,
2013-09-16 18:27:00,60.0,52.4,29.79,ESE,120,2.0,3.0,76,0.00,,,0.00,WeatherCatV1.02B3,2013-09-16 22:27:00,
2013-09-16 18:32:00,59.8,52.2,29.79,NW,326,1.0,4.0,76,0.00,,,0.00,WeatherCatV1.02B3,2013-09-16 22:32:00,
2013-09-16 18:37:00,59.7,52.1,29.80,WSW,256,2.0,5.0,76,0.00,,,0.00,WeatherCatV1.02B3,2013-09-16 22:37:00,
2013-09-16 18:42:00,59.5,51.9,29.80,West,259,1.0,8.0,76,0.00,,,0.00,WeatherCatV1.02B3,2013-09-16 22:42:00,
2013-09-16 18:47:00,59.4,52.2,29.80,NNE,12,0.0,4.0,77,0.00,,,0.00,WeatherCatV1.02B3,2013-09-16 22:47:00,
2013-09-16 19:19:00,58.4,51.9,29.80,WNW,295,1.0,4.0,79,0.00,,,0.00,WeatherCatV1.02B3,2013-09-16 23:19:00,
2013-09-16 19:24:00,58.3,51.8,29.80,ESE,113,1.0,1.0,79,0.00,,,0.00,WeatherCatV1.02B3,2013-09-16 23:24:00,
2013-09-16 19:29:00,58.1,52.0,29.80,East,84,1.0,6.0,80,0.00,,,0.00,WeatherCatV1.02B3,2013-09-16 23:29:00,
2013-09-16 19:34:00,57.9,52.1,29.80,NE,46,0.0,1.0,81,0.00,,,0.00,WeatherCatV1.02B3,2013-09-16 23:34:00,
2013-09-16 19:39:00,57.6,51.8,29.80,East,87,2.0,3.0,81,0.00,,,0.00,WeatherCatV1.02B3,2013-09-16 23:39:00,
2013-09-16 19:44:00,57.4,51.6,29.80,ENE,63,0.0,1.0,81,0.00,,,0.00,WeatherCatV1.02B3,2013-09-16 23:44:00,
2013-09-16 19:49:00,57.1,51.7,29.80,ENE,68,0.0,1.0,82,0.00,,,0.00,WeatherCatV1.02B3,2013-09-16 23:49:00,
2013-09-16 19:54:00,56.7,51.3,29.80,East,91,0.0,0.0,82,0.00,,,0.00,WeatherCatV1.02B3,2013-09-16 23:54:00,
2013-09-16 19:59:00,56.3,51.2,29.80,East,91,0.0,0.0,83,0.00,,,0.00,WeatherCatV1.02B3,2013-09-16 23:59:00,
2013-09-16 20:04:00,55.6,50.5,29.80,East,91,0.0,0.0,83,0.00,,,0.00,WeatherCatV1.02B3,2013-09-17 00:04:00,
2013-09-16 20:09:00,54.9,50.5,29.79,East,91,0.0,0.0,85,0.00,,,0.00,WeatherCatV1.02B3,2013-09-17 00:09:00,
2013-09-16 20:14:00,54.2,50.1,29.79,East,92,0.0,0.0,86,0.00,,,0.00,WeatherCatV1.02B3,2013-09-17 00:14:00,
2013-09-16 20:19:00,53.6,49.8,29.79,East,91,0.0,0.0,87,0.00,,,0.00,WeatherCatV1.02B3,2013-09-17 00:19:00,
2013-09-16 20:24:00,53.3,50.1,29.80,East,90,0.0,0.0,89,0.00,,,0.00,WeatherCatV1.02B3,2013-09-17 00:24:00,
2013-09-16 20:29:00,53.1,49.9,29.79,East,91,0.0,0.0,89,0.00,,,0.00,WeatherCatV1.02B3,2013-09-17 00:29:00,
2013-09-16 20:34:00,52.7,49.5,29.79,East,91,0.0,0.0,89,0.00,,,0.00,WeatherCatV1.02B3,2013-09-17 00:34:00,
2013-09-16 20:35:00,52.7,49.5,29.79,East,90,0.0,0.0,89,0.00,,,0.00,WeatherCatV1.02B3,2013-09-17 00:35:00,
2013-09-16 20:40:00,52.3,49.2,29.80,East,90,0.0,0.0,89,0.00,,,0.00,WeatherCatV1.02B3,2013-09-17 00:40:00,
2013-09-16 20:45:00,51.7,48.6,29.80,East,90,0.0,0.0,89,0.00,,,0.00,WeatherCatV1.02B3,2013-09-17 00:45:00,
2013-09-16 20:50:00,51.1,48.0,29.80,East,90,0.0,0.0,89,0.00,,,0.00,WeatherCatV1.02B3,2013-09-17 00:50:00,
2013-09-16 20:55:00,50.6,47.8,29.80,East,90,0.0,0.0,90,0.00,,,0.00,WeatherCatV1.02B3,2013-09-17 00:55:00,
2013-09-16 21:00:00,50.3,47.8,29.80,East,90,0.0,0.0,91,0.00,,,0.00,WeatherCatV1.02B3,2013-09-17 01:00:00,
2013-09-16 21:05:00,50.2,48.0,29.80,East,90,0.0,0.0,92,0.00,,,0.00,WeatherCatV1.02B3,2013-09-17 01:05:00,
2013-09-16 21:10:00,50.1,47.9,29.80,East,90,0.0,0.0,92,0.00,,,0.00,WeatherCatV1.02B3,2013-09-17 01:10:00,
2013-09-16 21:15:00,49.9,48.0,29.81,East,90,0.0,0.0,93,0.00,,,0.00,WeatherCatV1.02B3,2013-09-17 01:15:00,
2013-09-16 21:20:00,49.6,47.4,29.81,East,90,0.0,0.0,92,0.00,,,0.00,WeatherCatV1.02B3,2013-09-17 01:20:00,
2013-09-16 21:25:00,49.2,47.3,29.81,East,90,0.0,0.0,93,0.00,,,0.00,WeatherCatV1.02B3,2013-09-17 01:25:00,
2013-09-16 21:30:00,49.6,47.9,29.81,East,90,0.0,0.0,94,0.00,,,0.00,WeatherCatV1.02B3,2013-09-17 01:30:00,
2013-09-16 21:35:00,50.1,48.4,29.81,East,90,0.0,0.0,94,0.00,,,0.00,WeatherCatV1.02B3,2013-09-17 01:35:00,
2013-09-16 21:40:00,50.3,48.6,29.81,East,90,0.0,0.0,94,0.00,,,0.00,WeatherCatV1.02B3,2013-09-17 01:40:00,
2013-09-16 21:45:00,50.5,48.6,29.81,East,90,0.0,1.0,93,0.00,,,0.00,WeatherCatV1.02B3,2013-09-17 01:45:00,
2013-09-16 21:50:00,50.5,48.6,29.81,East,90,0.0,0.0,93,0.00,,,0.00,WeatherCatV1.02B3,2013-09-17 01:50:00,
2013-09-16 21:55:00,50.5,48.6,29.81,East,90,0.0,0.0,93,0.00,,,0.00,WeatherCatV1.02B3,2013-09-17 01:55:00,
2013-09-16 22:00:00,50.5,48.3,29.81,East,90,0.0,0.0,92,0.00,,,0.00,WeatherCatV1.02B3,2013-09-17 02:00:00,
2013-09-16 22:05:00,50.3,48.1,29.81,East,90,0.0,0.0,92,0.00,,,0.00,WeatherCatV1.02B3,2013-09-17 02:05:00,
2013-09-16 22:10:00,50.2,48.3,29.81,East,90,0.0,0.0,93,0.00,,,0.00,WeatherCatV1.02B3,2013-09-17 02:10:00,
2013-09-16 22:15:00,50.1,47.9,29.81,East,90,0.0,0.0,92,0.00,,,0.00,WeatherCatV1.02B3,2013-09-17 02:15:00,
2013-09-16 22:20:00,49.9,47.7,29.81,East,90,0.0,0.0,92,0.00,,,0.00,WeatherCatV1.02B3,2013-09-17 02:20:00,
2013-09-16 22:25:00,49.5,47.3,29.81,East,90,0.0,0.0,92,0.00,,,0.00,WeatherCatV1.02B3,2013-09-17 02:25:00,
2013-09-16 22:30:00,49.4,47.5,29.81,East,90,0.0,0.0,93,0.00,,,0.00,WeatherCatV1.02B3,2013-09-17 02:30:00,
2013-09-16 22:35:00,49.1,47.2,29.81,East,90,0.0,0.0,93,0.00,,,0.00,WeatherCatV1.02B3,2013-09-17 02:35:00,
2013-09-16 22:40:00,49.1,47.2,29.81,East,90,0.0,0.0,93,0.00,,,0.00,WeatherCatV1.02B3,2013-09-17 02:40:00,
2013-09-16 22:45:00,48.8,46.9,29.81,East,90,0.0,0.0,93,0.00,,,0.00,WeatherCatV1.02B3,2013-09-17 02:45:00,
2013-09-16 22:50:00,48.6,46.7,29.81,East,90,0.0,0.0,93,0.00,,,0.00,WeatherCatV1.02B3,2013-09-17 02:50:00,
2013-09-16 22:55:00,48.0,46.1,29.81,East,90,0.0,0.0,93,0.00,,,0.00,WeatherCatV1.02B3,2013-09-17 02:55:00,
2013-09-16 23:00:00,47.7,45.8,29.82,East,90,0.0,0.0,93,0.00,,,0.00,WeatherCatV1.02B3,2013-09-17 03:00:00,
2013-09-16 23:05:00,47.2,45.3,29.82,East,90,0.0,0.0,93,0.00,,,0.00,WeatherCatV1.02B3,2013-09-17 03:05:00,
2013-09-16 23:10:00,47.1,45.5,29.82,East,90,0.0,0.0,94,0.00,,,0.00,WeatherCatV1.02B3,2013-09-17 03:10:00,
2013-09-16 23:15:00,46.8,45.2,29.82,East,90,0.0,0.0,94,0.00,,,0.00,WeatherCatV1.02B3,2013-09-17 03:15:00,
2013-09-16 23:20:00,46.7,45.3,29.82,East,90,0.0,0.0,95,0.00,,,0.00,WeatherCatV1.02B3,2013-09-17 03:20:00,
2013-09-16 23:25:00,46.9,45.5,29.82,East,90,0.0,0.0,95,0.00,,,0.00,WeatherCatV1.02B3,2013-09-17 03:25:00,
2013-09-16 23:30:00,46.7,45.3,29.82,East,90,0.0,0.0,95,0.00,,,0.00,WeatherCatV1.02B3,2013-09-17 03:30:00,
2013-09-16 23:35:00,46.4,44.8,29.82,East,90,0.0,0.0,94,0.00,,,0.00,WeatherCatV1.02B3,2013-09-17 03:35:00,
2013-09-16 23:40:00,46.1,44.7,29.83,East,90,0.0,0.0,95,0.00,,,0.00,WeatherCatV1.02B3,2013-09-17 03:40:00,
2013-09-16 23:45:00,45.8,44.4,29.83,East,90,0.0,0.0,95,0.00,,,0.00,WeatherCatV1.02B3,2013-09-17 03:45:00,
2013-09-16 23:50:00,45.6,44.3,29.83,East,90,0.0,0.0,95,0.00,,,0.00,WeatherCatV1.02B3,2013-09-17 03:50:00,
2013-09-16 23:55:00,45.4,44.1,29.83,East,90,0.0,0.0,95,0.00,,,0.00,WeatherCatV1.02B3,2013-09-17 03:55:00,